973  
ASUS44 KMAF 210810  
RWRMAF  
MIDLAND AREA WEATHER ROUNDUP  
NATIONAL WEATHER SERVICE MIDLAND TX  
300 AM CDT FRI JUL 21 2017  
   
..IN SOUTHWEST TEXAS AND SOUTHEAST NEW MEXICO
 
 
 
CITY SKY/WX TMP DP RH WIND PRES REMARKS
 
ALPINE MOCLDY 71 60 67 S8 30.22F  
ANDREWS FAIR 75 55 48 S6 30.10F  
ARTESIA CLEAR 77 54 44 S7 30.09F  
BIG SPRING CLEAR 76 56 49 SE6 30.09S  
CARLSBAD CLEAR 75 56 51 SW6 30.06F  
DRYDEN N/A 77 64 64 N6 30.02F  
FORT STOCKTON CLEAR 77 62 59 SW6 30.06F  
GUAD PASS CLEAR 70 58 65 NW5 30.23F  
HOBBS CLEAR 72 54 53 SE6 30.13F  
MARFA PTCLDY 65 61 87 CALM 30.21F  
MIDLAND AIRPK CLEAR 80 55 42 S3 30.08F  
MIDLAND INTL CLEAR 79 55 43 S5 30.07F  
ODESSA CLEAR 79 56 45 SE7 30.08F  
PECOS CLEAR 78 57 49 E7 30.03F  
PRESIDIO FAIR 77 64 64 NE5 30.08F  
SEMINOLE CLEAR 73 54 51 SW5 30.12S  
SNYDER PTCLDY 78 60 53 S7 30.06S  
WINK CLEAR 79 56 45 SE8 30.04F  

   
..OTHER STATIONS IN TEXAS
 
 
 
CITY SKY/WX TMP DP RH WIND PRES REMARKS
 
ABILENE CLEAR 78 63 59 SE8 30.03F  
AMARILLO CLEAR 76 57 51 S14 30.09S  
AUSTIN CLEAR 78 73 84 S6 30.02F  
BROWNSVILLE CLEAR 78 77 96 S6 30.01F  
CORPUS CHRISTI PTCLDY 78 77 96 S6 30.00F  
DALLAS FTW CLEAR 84 72 67 S8 29.99S  
DEL RIO CLEAR 83 68 60 SE9 29.97S  
EL PASO CLOUDY 73 67 81 NE3 30.10F  
HOUSTON INT PTCLDY 78 74 87 CALM 30.02S  
LUBBOCK PTCLDY 81 54 39 SW15G22 30.09S  
SAN ANGELO CLEAR 78 59 51 S7 30.03F  
SAN ANTONIO CLEAR 80 71 74 S10 30.04F  
WACO CLEAR 83 74 74 S10 30.01S  
WICHITA FALLS NOT AVBL  

   
..OTHER LOCATIONS IN NEW MEXICO
 
 
 
CITY SKY/WX TMP DP RH WIND PRES REMARKS
 
ALAMOGORDO PTCLDY 68 61 77 CALM 30.15F  
ALBUQUERQUE CLOUDY 73 57 57 S13 30.23F  
CANNON AFB CLEAR 72 52 50 SW9 30.15F  
CLOVIS CLEAR 68 53 58 SW6 30.15S  
HOLLOMAN AFB PTCLDY 72 59 63 N6 30.15F  
ROSWELL CLEAR 76 52 43 S7 30.10S  
RUIDOSO CLOUDY 61 54 77 SW5 30.33F  
SANTA FE PTCLDY 68 52 56 CALM 30.28F  
TRUTH OR CONSE CLOUDY 69 57 65 W5 30.17F  
TUCUMCARI CLEAR 74 53 48 SW7 30.08F  

 
 
 
CLICK HERE TO GO TO PREVIOUS BULLETINS.

The Nexlab TX Page
The Nexlab NM Page Main Text Page